• In Österreich
  • Länderverzeichnis
  • Für 7 Tage
  • Wassertemperatur
  • Satellitenkarten
  • Wetterkarte
  • News
  • Widgets
  • user-avatar
    Anmelden

    Stündliche Wetter Kutaissi

    Heute, 21 September, Freitag

    Zeit Temperatur Niederschläge Wind Luftdruck Luftfeuchtigkeit
    00:00 +19°C° 0 mm 2 m/S 750 mmHg 74%
    01:00 +19°C° 0 mm 2 m/S 750 mmHg 74%
    02:00 +19°C° 0 mm 2 m/S 750 mmHg 73%
    03:00 +19°C° 0 mm 2 m/S 750 mmHg 73%
    04:00 +19°C° 0 mm 2 m/S 750 mmHg 72%
    05:00 +18°C° 0 mm 2 m/S 750 mmHg 72%
    06:00 +18°C° 0 mm 2 m/S 750 mmHg 71%
    07:00 +21°C° 0 mm 2 m/S 750 mmHg 65%
    08:00 +24°C° 0 mm 2 m/S 749 mmHg 58%
    09:00 +27°C° 0 mm 2 m/S 749 mmHg 51%
    10:00 +28°C° 0 mm 2 m/S 749 mmHg 48%
    11:00 +29°C° 0 mm 2 m/S 749 mmHg 44%
    12:00 +31°C° 0 mm 2 m/S 749 mmHg 40%
    13:00 +31°C° 0 mm 2 m/S 749 mmHg 41%
    14:00 +31°C° 0 mm 2 m/S 748 mmHg 42%
    15:00 +31°C° 0 mm 2 m/S 748 mmHg 43%
    16:00 +28°C° 0 mm 2 m/S 748 mmHg 54%
    17:00 +26°C° 0 mm 1 m/S 748 mmHg 66%
    18:00 +21°C° 0 mm 0 m/S 749 mmHg 77%
    19:00 +23°C° 0 mm 1 m/S 749 mmHg 77%
    20:00 +22°C° 0 mm 1 m/S 749 mmHg 77%
    21:00 +22°C° 0 mm 1 m/S 750 mmHg 78%
    22:00 +22°C° 0 mm 1 m/S 750 mmHg 76%
    23:00 +21°C° 0 mm 1 m/S 750 mmHg 75%

    Morgen, 22 September, Samstag

    Zeit Temperatur Niederschläge Wind Luftdruck Luftfeuchtigkeit
    00:00 +21°C° 0 mm 1 m/S 750 mmHg 74%
    01:00 +20°C° 0 mm 2 m/S 750 mmHg 73%
    02:00 +20°C° 0 mm 2 m/S 750 mmHg 72%
    03:00 +20°C° 0 mm 2 m/S 750 mmHg 72%
    04:00 +20°C° 0 mm 2 m/S 750 mmHg 71%
    05:00 +20°C° 0 mm 2 m/S 750 mmHg 70%
    06:00 +20°C° 0 mm 2 m/S 750 mmHg 69%
    07:00 +23°C° 0 mm 2 m/S 750 mmHg 63%
    08:00 +25°C° 0 mm 2 m/S 750 mmHg 57%
    09:00 +27°C° 0 mm 1 m/S 750 mmHg 52%
    10:00 +28°C° 0 mm 1 m/S 749 mmHg 49%
    11:00 +29°C° 0 mm 2 m/S 749 mmHg 46%
    12:00 +30°C° 0 mm 2 m/S 749 mmHg 43%
    13:00 +30°C° 0 mm 2 m/S 749 mmHg 45%
    14:00 +30°C° 0 mm 2 m/S 749 mmHg 47%
    15:00 +29°C° 0 mm 2 m/S 748 mmHg 49%
    16:00 +27°C° 0.1 mm 1 m/S 748 mmHg 59%
    17:00 +25°C° 0.1 mm 1 m/S 748 mmHg 69%
    18:00 +21°C° 0.1 mm 0 m/S 749 mmHg 79%
    19:00 +22°C° 0.1 mm 1 m/S 749 mmHg 80%
    20:00 +22°C° 0.1 mm 1 m/S 749 mmHg 80%
    21:00 +21°C° 0.1 mm 1 m/S 750 mmHg 81%
    22:00 +21°C° 0.1 mm 1 m/S 750 mmHg 80%
    23:00 +21°C° 0.1 mm 1 m/S 750 mmHg 79%

    übermorgen, 23 September, Sonntag

    Zeit Temperatur Niederschläge Wind Luftdruck Luftfeuchtigkeit
    00:00 +21°C° 0.1 mm 1 m/S 750 mmHg 78%
    01:00 +20°C° 0 mm 1 m/S 749 mmHg 77%
    02:00 +20°C° 0 mm 1 m/S 749 mmHg 76%
    03:00 +20°C° 0 mm 1 m/S 749 mmHg 75%
    04:00 +19°C° 0 mm 2 m/S 749 mmHg 74%
    05:00 +19°C° 0 mm 2 m/S 749 mmHg 73%
    06:00 +18°C° 0 mm 2 m/S 749 mmHg 72%
    07:00 +22°C° 0 mm 1 m/S 749 mmHg 66%
    08:00 +24°C° 0 mm 1 m/S 749 mmHg 60%
    09:00 +26°C° 0 mm 1 m/S 749 mmHg 54%
    10:00 +27°C° 0 mm 1 m/S 749 mmHg 52%
    11:00 +28°C° 0 mm 2 m/S 749 mmHg 49%
    12:00 +29°C° 0 mm 2 m/S 749 mmHg 47%
    13:00 +29°C° 0.1 mm 2 m/S 748 mmHg 50%
    14:00 +28°C° 0.1 mm 3 m/S 748 mmHg 53%
    15:00 +28°C° 0.1 mm 3 m/S 748 mmHg 56%
    16:00 +26°C° 0.6 mm 3 m/S 748 mmHg 67%
    17:00 +24°C° 0.6 mm 2 m/S 749 mmHg 78%
    18:00 +21°C° 0.6 mm 2 m/S 749 mmHg 88%
    19:00 +21°C° 0.7 mm 1 m/S 749 mmHg 91%
    20:00 +21°C° 0.7 mm 1 m/S 750 mmHg 93%
    21:00 +20°C° 0.7 mm 1 m/S 750 mmHg 96%
    22:00 +20°C° 0.5 mm 1 m/S 750 mmHg 95%
    23:00 +20°C° 0.5 mm 1 m/S 751 mmHg 94%

    24 September, Montag

    Zeit Temperatur Niederschläge Wind Luftdruck Luftfeuchtigkeit
    00:00 +20°C° 0.5 mm 1 m/S 751 mmHg 93%
    01:00 +19°C° 0.5 mm 1 m/S 751 mmHg 92%
    02:00 +19°C° 0.5 mm 1 m/S 750 mmHg 91%
    03:00 +19°C° 0.5 mm 1 m/S 750 mmHg 90%
    04:00 +19°C° 0.6 mm 1 m/S 750 mmHg 89%
    05:00 +19°C° 0.6 mm 1 m/S 751 mmHg 88%
    06:00 +19°C° 0.6 mm 1 m/S 751 mmHg 87%
    07:00 +19°C° 0.7 mm 1 m/S 751 mmHg 86%
    08:00 +20°C° 0.7 mm 1 m/S 750 mmHg 84%
    09:00 +20°C° 0.7 mm 1 m/S 750 mmHg 83%
    10:00 +20°C° 0.5 mm 1 m/S 750 mmHg 81%
    11:00 +21°C° 0.5 mm 1 m/S 750 mmHg 80%
    12:00 +21°C° 0.5 mm 1 m/S 750 mmHg 78%
    13:00 +22°C° 0.1 mm 1 m/S 750 mmHg 76%
    14:00 +22°C° 0.1 mm 1 m/S 749 mmHg 75%
    15:00 +23°C° 0.1 mm 1 m/S 749 mmHg 73%
    16:00 +22°C° 0 mm 1 m/S 749 mmHg 78%
    17:00 +21°C° 0 mm 1 m/S 749 mmHg 83%
    18:00 +20°C° 0 mm 1 m/S 749 mmHg 87%
    19:00 +19°C° 0 mm 1 m/S 749 mmHg 87%
    20:00 +19°C° 0 mm 1 m/S 749 mmHg 86%
    21:00 +17°C° 0 mm 2 m/S 750 mmHg 85%
    22:00 +17°C° 0 mm 2 m/S 749 mmHg 84%
    23:00 +17°C° 0 mm 2 m/S 749 mmHg 82%

    25 September, Dienstag

    Zeit Temperatur Niederschläge Wind Luftdruck Luftfeuchtigkeit
    00:00 +17°C° 0 mm 2 m/S 749 mmHg 80%
    01:00 +17°C° 0 mm 2 m/S 748 mmHg 77%
    02:00 +17°C° 0 mm 2 m/S 748 mmHg 75%
    03:00 +17°C° 0 mm 2 m/S 748 mmHg 73%
    04:00 +17°C° 0 mm 2 m/S 748 mmHg 71%
    05:00 +17°C° 0 mm 2 m/S 748 mmHg 69%
    06:00 +17°C° 0 mm 2 m/S 748 mmHg 67%
    07:00 +20°C° 0 mm 2 m/S 748 mmHg 61%
    08:00 +23°C° 0 mm 2 m/S 748 mmHg 54%
    09:00 +26°C° 0 mm 1 m/S 747 mmHg 48%
    10:00 +27°C° 0 mm 1 m/S 747 mmHg 44%
    11:00 +29°C° 0 mm 1 m/S 747 mmHg 40%
    12:00 +30°C° 0 mm 1 m/S 747 mmHg 37%
    13:00 +30°C° 0 mm 2 m/S 747 mmHg 37%
    14:00 +30°C° 0 mm 2 m/S 746 mmHg 38%
    15:00 +30°C° 0 mm 2 m/S 746 mmHg 39%
    16:00 +27°C° 0 mm 2 m/S 746 mmHg 49%
    17:00 +24°C° 0 mm 1 m/S 747 mmHg 59%
    18:00 +22°C° 0 mm 1 m/S 747 mmHg 69%
    19:00 +21°C° 0 mm 1 m/S 748 mmHg 71%
    20:00 +20°C° 0 mm 1 m/S 748 mmHg 72%
    21:00 +20°C° 0 mm 1 m/S 749 mmHg 74%
    22:00 +19°C° 0 mm 1 m/S 749 mmHg 74%
    23:00 +19°C° 0 mm 1 m/S 749 mmHg 74%

    26 September, Mittwoch

    Zeit Temperatur Niederschläge Wind Luftdruck Luftfeuchtigkeit
    00:00 +19°C° 0 mm 1 m/S 749 mmHg 74%
    01:00 +18°C° 0 mm 1 m/S 749 mmHg 74%
    02:00 +18°C° 0 mm 1 m/S 749 mmHg 74%
    03:00 +18°C° 0 mm 1 m/S 749 mmHg 74%
    04:00 +18°C° 0 mm 1 m/S 749 mmHg 73%
    05:00 +18°C° 0 mm 1 m/S 749 mmHg 73%
    06:00 +18°C° 0 mm 1 m/S 749 mmHg 73%
    07:00 +20°C° 0 mm 1 m/S 749 mmHg 68%
    08:00 +22°C° 0 mm 1 m/S 749 mmHg 63%
    09:00 +23°C° 0 mm 0 m/S 749 mmHg 57%
    10:00 +25°C° 0.1 mm 1 m/S 749 mmHg 59%
    11:00 +25°C° 0.1 mm 1 m/S 749 mmHg 60%
    12:00 +25°C° 0.1 mm 2 m/S 749 mmHg 62%
    13:00 +24°C° 0.2 mm 2 m/S 749 mmHg 67%
    14:00 +24°C° 0.2 mm 2 m/S 749 mmHg 72%
    15:00 +23°C° 0.2 mm 2 m/S 749 mmHg 78%
    16:00 +22°C° 0.1 mm 1 m/S 749 mmHg 83%
    17:00 +21°C° 0.1 mm 1 m/S 749 mmHg 88%
    18:00 +18°C° 0.1 mm 0 m/S 750 mmHg 92%
    19:00 +18°C° 0 mm 0 m/S 750 mmHg 92%
    20:00 +20°C° 0 mm 1 m/S 750 mmHg 92%
    21:00 +19°C° 0 mm 1 m/S 751 mmHg 92%
    22:00 +19°C° 0 mm 1 m/S 751 mmHg 91%
    23:00 +19°C° 0 mm 1 m/S 751 mmHg 90%
    Mehr zeigen